Location: Ferchesar
(52.6477°N, 12.4298°E)
Time: 02:04:25
(UTC+01:00)

BUGSAT 1 - Pass Details

Date: 23 October 2021
Orbit: 558 x 600 km, 98.1° (Epoch: 03 December)

Event Time Altitude Azimuth Distance (km) Brightness Sun altitude
Rises 07:01:20 0° 9° (N) 2,760 ? -8.1°
Reaches altitude 10° 07:03:35 10° 1° (N) 1,859 ? -7.8°
Maximum altitude 07:07:17 37° 294° (WNW) 881 ? -7.2°
Drops below altitude 10° 07:10:59 10° 226° (SW) 1,854 ? -6.7°
Sets 07:13:13 0° 218° (SW) 2,750 ? -6.3°
